Hourly Weather Hrapyni

Today, 11 May, Tuesday

Time Temperature Precipitation Wind Pressure Humidity
00:00 +7°C° 0 mm 1 mps 746 mmHg 71%
01:00 +7°C° 0 mm 1 mps 746 mmHg 72%
02:00 +6°C° 0 mm 1 mps 746 mmHg 73%
03:00 +7°C° 0 mm 1 mps 746 mmHg 73%
04:00 +7°C° 0 mm 1 mps 746 mmHg 73%
05:00 +7°C° 0 mm 1 mps 746 mmHg 73%
06:00 +9°C° 0 mm 1 mps 746 mmHg 65%
07:00 +11°C° 0 mm 1 mps 747 mmHg 58%
08:00 +13°C° 0 mm 2 mps 747 mmHg 50%
09:00 +14°C° 0 mm 2 mps 746 mmHg 46%
10:00 +16°C° 0 mm 2 mps 746 mmHg 41%
11:00 +17°C° 0 mm 3 mps 746 mmHg 37%
12:00 +18°C° 0 mm 3 mps 746 mmHg 36%
13:00 +18°C° 0 mm 3 mps 746 mmHg 35%
14:00 +19°C° 0 mm 3 mps 745 mmHg 34%
15:00 +19°C° 0 mm 3 mps 745 mmHg 37%
16:00 +19°C° 0 mm 2 mps 745 mmHg 41%
17:00 +18°C° 0 mm 2 mps 745 mmHg 45%
18:00 +16°C° 0 mm 2 mps 745 mmHg 54%
19:00 +14°C° 0 mm 2 mps 745 mmHg 62%
20:00 +12°C° 0 mm 2 mps 745 mmHg 71%
21:00 +10°C° 0 mm 2 mps 745 mmHg 75%
22:00 +9°C° 0 mm 2 mps 745 mmHg 79%
23:00 +9°C° 0 mm 2 mps 745 mmHg 83%

Tomorrow, 12 May, Wednesday

Time Temperature Precipitation Wind Pressure Humidity
00:00 +9°C° 0 mm 2 mps 745 mmHg 87%
01:00 +10°C° 0 mm 1 mps 745 mmHg 90%
02:00 +9°C° 0 mm 1 mps 745 mmHg 93%
03:00 +10°C° 0 mm 1 mps 745 mmHg 93%
04:00 +10°C° 0 mm 1 mps 745 mmHg 93%
05:00 +10°C° 0 mm 1 mps 745 mmHg 94%
06:00 +12°C° 0 mm 2 mps 745 mmHg 86%
07:00 +15°C° 0 mm 2 mps 745 mmHg 79%
08:00 +17°C° 0 mm 2 mps 745 mmHg 71%
09:00 +18°C° 0 mm 2 mps 745 mmHg 65%
10:00 +19°C° 0 mm 3 mps 745 mmHg 60%
11:00 +20°C° 0 mm 3 mps 744 mmHg 54%
12:00 +20°C° 0.2 mm 3 mps 744 mmHg 55%
13:00 +21°C° 0.2 mm 3 mps 743 mmHg 56%
14:00 +21°C° 0.2 mm 4 mps 743 mmHg 58%
15:00 +20°C° 0.8 mm 4 mps 742 mmHg 66%
16:00 +18°C° 0.8 mm 4 mps 741 mmHg 74%
17:00 +17°C° 0.8 mm 3 mps 741 mmHg 83%
18:00 +17°C° 0.7 mm 4 mps 740 mmHg 85%
19:00 +15°C° 0.7 mm 4 mps 739 mmHg 86%
20:00 +14°C° 0.7 mm 4 mps 739 mmHg 88%
21:00 +13°C° 0.6 mm 4 mps 739 mmHg 90%
22:00 +13°C° 0.6 mm 4 mps 739 mmHg 92%
23:00 +12°C° 0.6 mm 3 mps 739 mmHg 93%

Day after tomorrow, 13 May, Thursday

Time Temperature Precipitation Wind Pressure Humidity
00:00 +11°C° 0 mm 3 mps 739 mmHg 95%
01:00 +10°C° 0 mm 3 mps 739 mmHg 96%
02:00 +9°C° 0 mm 2 mps 740 mmHg 97%
03:00 +8°C° 0 mm 2 mps 740 mmHg 96%
04:00 +8°C° 0 mm 2 mps 740 mmHg 96%
05:00 +7°C° 0 mm 2 mps 740 mmHg 95%
06:00 +9°C° 0 mm 3 mps 740 mmHg 88%
07:00 +10°C° 0 mm 3 mps 740 mmHg 82%
08:00 +12°C° 0 mm 3 mps 740 mmHg 75%
09:00 +13°C° 0 mm 3 mps 739 mmHg 72%
10:00 +14°C° 0 mm 4 mps 739 mmHg 68%
11:00 +15°C° 0 mm 4 mps 738 mmHg 65%
12:00 +14°C° 0.6 mm 3 mps 738 mmHg 73%
13:00 +13°C° 0.6 mm 3 mps 738 mmHg 82%
14:00 +12°C° 0.6 mm 3 mps 738 mmHg 90%
15:00 +13°C° 0.4 mm 2 mps 737 mmHg 88%
16:00 +13°C° 0.4 mm 2 mps 737 mmHg 87%
17:00 +14°C° 0.4 mm 2 mps 736 mmHg 86%
18:00 +13°C° 0.1 mm 2 mps 736 mmHg 89%
19:00 +12°C° 0.1 mm 2 mps 736 mmHg 92%
20:00 +10°C° 0.1 mm 2 mps 736 mmHg 95%
21:00 +9°C° 0 mm 2 mps 736 mmHg 96%
22:00 +9°C° 0 mm 2 mps 736 mmHg 97%
23:00 +8°C° 0 mm 2 mps 736 mmHg 97%

14 May, Friday

Time Temperature Precipitation Wind Pressure Humidity
00:00 +8°C° 0 mm 2 mps 737 mmHg 97%
01:00 +8°C° 0 mm 1 mps 737 mmHg 96%
02:00 +8°C° 0 mm 1 mps 737 mmHg 96%
03:00 +8°C° 0 mm 1 mps 737 mmHg 95%
04:00 +8°C° 0 mm 1 mps 737 mmHg 94%
05:00 +9°C° 0 mm 1 mps 737 mmHg 93%
06:00 +9°C° 0 mm 2 mps 737 mmHg 87%
07:00 +12°C° 0 mm 2 mps 737 mmHg 81%
08:00 +12°C° 0 mm 3 mps 737 mmHg 76%
09:00 +14°C° 0 mm 3 mps 737 mmHg 69%
10:00 +16°C° 0 mm 3 mps 737 mmHg 61%
11:00 +18°C° 0 mm 4 mps 737 mmHg 54%
12:00 +18°C° 0 mm 4 mps 737 mmHg 55%
13:00 +19°C° 0 mm 4 mps 736 mmHg 56%
14:00 +19°C° 0 mm 3 mps 736 mmHg 57%
15:00 +19°C° 0.3 mm 3 mps 736 mmHg 64%
16:00 +19°C° 0.3 mm 3 mps 735 mmHg 71%
17:00 +18°C° 0.3 mm 3 mps 735 mmHg 77%
18:00 +17°C° 0.5 mm 3 mps 734 mmHg 83%
19:00 +16°C° 0.5 mm 3 mps 734 mmHg 88%
20:00 +14°C° 0.5 mm 3 mps 733 mmHg 94%
21:00 +13°C° 0.1 mm 3 mps 733 mmHg 95%
22:00 +13°C° 0.1 mm 3 mps 732 mmHg 96%
23:00 +13°C° 0.1 mm 2 mps 732 mmHg 98%

15 May, Saturday

Time Temperature Precipitation Wind Pressure Humidity
00:00 +13°C° 0 mm 2 mps 732 mmHg 98%
01:00 +13°C° 0 mm 2 mps 732 mmHg 98%
02:00 +13°C° 0 mm 2 mps 732 mmHg 98%
03:00 +12°C° 0.1 mm 3 mps 731 mmHg 98%
04:00 +13°C° 0.1 mm 3 mps 731 mmHg 97%
05:00 +13°C° 0.1 mm 3 mps 731 mmHg 96%
06:00 +14°C° 0.5 mm 3 mps 731 mmHg 93%
07:00 +16°C° 0.5 mm 3 mps 731 mmHg 90%
08:00 +17°C° 0.5 mm 4 mps 731 mmHg 87%
09:00 +18°C° 0.2 mm 4 mps 731 mmHg 83%
10:00 +19°C° 0.2 mm 4 mps 731 mmHg 80%
11:00 +19°C° 0.2 mm 4 mps 731 mmHg 76%
12:00 +20°C° 0.6 mm 4 mps 730 mmHg 75%
13:00 +20°C° 0.6 mm 4 mps 730 mmHg 75%
14:00 +20°C° 0.6 mm 5 mps 730 mmHg 74%
15:00 +19°C° 0.2 mm 4 mps 730 mmHg 75%
16:00 +19°C° 0.2 mm 4 mps 730 mmHg 77%
17:00 +18°C° 0.2 mm 4 mps 730 mmHg 78%
18:00 +17°C° 0 mm 4 mps 730 mmHg 81%
19:00 +15°C° 0 mm 4 mps 730 mmHg 85%
20:00 +13°C° 0 mm 3 mps 730 mmHg 89%
21:00 +13°C° 0 mm 3 mps 730 mmHg 90%
22:00 +12°C° 0 mm 3 mps 731 mmHg 92%
23:00 +11°C° 0 mm 3 mps 731 mmHg 93%

16 May, Sunday

Time Temperature Precipitation Wind Pressure Humidity
00:00 +11°C° 0 mm 3 mps 731 mmHg 94%
01:00 +10°C° 0 mm 3 mps 731 mmHg 95%
02:00 +10°C° 0 mm 3 mps 731 mmHg 97%
03:00 +10°C° 0 mm 3 mps 731 mmHg 96%
04:00 +10°C° 0 mm 3 mps 731 mmHg 95%
05:00 +10°C° 0 mm 3 mps 732 mmHg 94%
06:00 +11°C° 0.1 mm 3 mps 732 mmHg 93%
07:00 +11°C° 0.1 mm 3 mps 732 mmHg 92%
08:00 +12°C° 0.1 mm 4 mps 732 mmHg 90%
09:00 +13°C° 0.1 mm 4 mps 733 mmHg 86%
10:00 +14°C° 0.1 mm 4 mps 733 mmHg 82%
11:00 +15°C° 0.1 mm 5 mps 733 mmHg 77%
12:00 +15°C° 0.1 mm 5 mps 734 mmHg 73%
13:00 +16°C° 0.1 mm 5 mps 734 mmHg 68%
14:00 +17°C° 0.1 mm 5 mps 734 mmHg 63%
15:00 +18°C° 0 mm 4 mps 734 mmHg 62%
16:00 +18°C° 0 mm 4 mps 734 mmHg 60%
17:00 +18°C° 0 mm 3 mps 735 mmHg 59%
18:00 +16°C° 0 mm 2 mps 735 mmHg 66%
19:00 +14°C° 0 mm 2 mps 735 mmHg 73%
20:00 +12°C° 0 mm 1 mps 735 mmHg 80%
21:00 +12°C° 0 mm 1 mps 736 mmHg 82%
22:00 +10°C° 0 mm 0 mps 736 mmHg 84%
23:00 +9°C° 0 mm 0 mps 736 mmHg 86%
Show more

We Need Your Consent

Meteoprog and our Service Providers may store and access personal data such as cookies, device identifiers or other similar technologies on your device and process such data to personalise content and ads, as well as provide social media features and to analyse the traffic.

  • Store and/or access information on your device

    Cookies, device identifiers or other information can be stored or accessed on your device for the purposes indicated above.

  • Personalised ads and content, ad and content measurement, audience insights, and products development

    Ads and content can be personalised based on a profile. More data can be added to better personalise ads and content. Ad and content performance can be measured. Insights about the audience who saw the ads and content can be derived. Such data can be used to develop or improve user’s experience, systems and software.

By clicking ‘I Agree’ you will allow the use of indicated cookies, device identifiers, web beacons or other similar technologies. Your settings can be changed in the browser on your device.

For certain purposes, legitimate interests may be relied on, rather than consent. You can read more about this in our Privacy and Cookie Policy.